| time (UTC) | temp C | wind direction | speed KPH | gust KPH | rain 1hr cm | rain 24hr cm | rain mn cm | humidity % | barometer mb |
| 20260505012026 | 20 | 186 | 11.3 | 16.1 | 0.00 | 0.00 | 0.00 | 56 | 1011.8 |
| 20260505011018 | 20 | 190 | 9.7 | 14.5 | 0.00 | 0.00 | 0.00 | 55 | 1011.5 |
| 20260505010023 | -17 | 0.0 | 0.0 | 0.00 | 0.00 | 0.00 | 1011.4 | ||
| 20260505005042 | 20 | 187 | 8.0 | 14.5 | 0.00 | 0.00 | 0.00 | 55 | 1011.3 |
| 20260505004041 | 20 | 185 | 8.0 | 14.5 | 0.00 | 0.00 | 0.00 | 55 | 1011.3 |
| 20260505003020 | 20 | 187 | 11.3 | 24.1 | 0.00 | 0.00 | 0.00 | 54 | 1011.1 |
| 20260505002018 | 20 | 196 | 9.7 | 17.7 | 0.00 | 0.00 | 0.00 | 54 | 1011.1 |
| 20260505001017 | 21 | 189 | 11.3 | 16.1 | 0.00 | 0.00 | 0.00 | 53 | 1010.9 |
| 20260505000016 | 21 | 171 | 14.5 | 19.3 | 0.00 | 0.00 | 0.00 | 52 | 1010.9 |
| 20260504235022 | 21 | 181 | 11.3 | 16.1 | 0.00 | 0.00 | 0.00 | 52 | 1011.0 |
| 20260504234026 | 21 | 193 | 8.0 | 11.3 | 0.00 | 0.00 | 0.00 | 52 | 1011.0 |
| 20260504233030 | 21 | 191 | 8.0 | 12.9 | 0.00 | 0.00 | 0.00 | 51 | 1010.9 |
| 20260504232017 | 22 | 177 | 9.7 | 17.7 | 0.00 | 0.00 | 0.00 | 50 | 1011.0 |
| 20260504231022 | 23 | 209 | 9.7 | 16.1 | 0.00 | 0.00 | 0.00 | 49 | 1010.8 |
| 20260504230027 | 23 | 174 | 9.7 | 16.1 | 0.00 | 0.00 | 0.00 | 48 | 1011.0 |
| 20260504225033 | 23 | 183 | 8.0 | 12.9 | 0.00 | 0.00 | 0.00 | 47 | 1011.1 |
| 20260504224019 | 23 | 194 | 11.3 | 14.5 | 0.00 | 0.00 | 0.00 | 47 | 1011.1 |
| 20260504223043 | 24 | 191 | 8.0 | 14.5 | 0.00 | 0.00 | 0.00 | 46 | 1011.2 |
| 20260504222029 | 24 | 176 | 11.3 | 16.1 | 0.00 | 0.00 | 0.00 | 47 | 1011.2 |
| 20260504221032 | 25 | 185 | 11.3 | 20.9 | 0.00 | 0.00 | 0.00 | 46 | 1011.2 |
| 20260504220020 | 24 | 203 | 6.4 | 12.9 | 0.00 | 0.00 | 0.00 | 47 | 1011.2 |
| 20260504215025 | 25 | 189 | 12.9 | 22.5 | 0.00 | 0.00 | 0.00 | 47 | 1011.2 |
| 20260504214029 | 24 | 176 | 11.3 | 19.3 | 0.00 | 0.00 | 0.00 | 47 | 1011.2 |
| 20260504213015 | 24 | 185 | 9.7 | 14.5 | 0.00 | 0.00 | 0.00 | 47 | 1011.2 |
| 20260504212021 | 24 | 206 | 11.3 | 14.5 | 0.00 | 0.00 | 0.00 | 47 | 1011.2 |
| 20260504211025 | 23 | 194 | 14.5 | 19.3 | 0.00 | 0.00 | 0.00 | 48 | 1011.2 |
| 20260504210030 | 23 | 179 | 14.5 | 20.9 | 0.00 | 0.00 | 0.00 | 48 | 1011.3 |
| 20260504205017 | 23 | 163 | 11.3 | 19.3 | 0.00 | 0.00 | 0.00 | 48 | 1011.3 |
| 20260504204021 | 23 | 237 | 12.9 | 24.1 | 0.00 | 0.00 | 0.00 | 48 | 1011.3 |
| 20260504203027 | 24 | 198 | 11.3 | 17.7 | 0.00 | 0.00 | 0.00 | 48 | 1011.4 |
| 20260504202031 | 24 | 191 | 11.3 | 14.5 | 0.00 | 0.00 | 0.00 | 47 | 1011.5 |
| 20260504201018 | 23 | 209 | 12.9 | 20.9 | 0.00 | 0.00 | 0.00 | 47 | 1011.7 |
| 20260504200023 | 24 | 191 | 9.7 | 16.1 | 0.00 | 0.00 | 0.00 | 48 | 1011.8 |
| 20260504195028 | 23 | 172 | 14.5 | 24.1 | 0.00 | 0.00 | 0.00 | 48 | 1012.0 |
| 20260504194032 | 23 | 210 | 11.3 | 17.7 | 0.00 | 0.00 | 0.00 | 48 | 1012.2 |
| 20260504193039 | 23 | 193 | 9.7 | 12.9 | 0.00 | 0.00 | 0.00 | 47 | 1012.4 |
| 20260504192044 | 23 | 223 | 12.9 | 16.1 | 0.00 | 0.00 | 0.00 | 48 | 1012.5 |
| 20260504191028 | 23 | 195 | 11.3 | 14.5 | 0.00 | 0.00 | 0.00 | 49 | 1012.6 |
| 20260504190015 | 23 | 210 | 11.3 | 17.7 | 0.00 | 0.00 | 0.00 | 47 | 1012.8 |
| 20260504185040 | 23 | 188 | 9.7 | 17.7 | 0.00 | 0.00 | 0.00 | 49 | 1013.1 |
| 20260504184106 | 23 | 214 | 12.9 | 17.7 | 0.00 | 0.00 | 0.00 | 49 | 1013.3 |
| 20260504183030 | 23 | 223 | 12.9 | 24.1 | 0.00 | 0.00 | 0.00 | 49 | 1013.5 |
| 20260504182016 | 22 | 194 | 9.7 | 16.1 | 0.00 | 0.00 | 0.00 | 50 | 1013.7 |
| 20260504181021 | 22 | 197 | 14.5 | 19.3 | 0.00 | 0.00 | 0.00 | 50 | 1013.9 |
| 20260504180025 | 22 | 214 | 12.9 | 19.3 | 0.00 | 0.00 | 0.00 | 49 | 1014.0 |
| 20260504175031 | 22 | 217 | 11.3 | 17.7 | 0.00 | 0.00 | 0.00 | 50 | 1014.0 |
| 20260504174017 | 22 | 182 | 12.9 | 25.7 | 0.00 | 0.00 | 0.00 | 51 | 1014.1 |
| 20260504173022 | 22 | 251 | 14.5 | 29.0 | 0.00 | 0.00 | 0.00 | 50 | 1014.2 |
| 20260504172027 | 21 | 196 | 6.4 | 11.3 | 0.00 | 0.00 | 0.00 | 52 | 1014.5 |
| 20260504171108 | 21 | 205 | 9.7 | 19.3 | 0.00 | 0.00 | 0.00 | 52 | 1014.6 |
| 20260504151016 | 18 | 206 | 9.7 | 17.7 | 0.00 | 0.00 | 0.00 | 53 | 1016.1 |
| 20260504141028 | 17 | 223 | 11.3 | 25.7 | 0.00 | 0.00 | 0.00 | 54 | 1016.2 |
| 20260504130105 | 15 | 223 | 9.7 | 17.7 | 0.00 | 0.00 | 0.00 | 50 | 1016.4 |
| 20260504081018 | 8 | 201 | 3.2 | 4.8 | 0.00 | 0.00 | 0.00 | 64 | 1017.2 |
| 20260504050020 | 5 | 185 | 1.6 | 3.2 | 0.00 | 0.43 | 0.00 | 84 | 1017.8 |
| 20260504045044 | 5 | 180 | 1.6 | 3.2 | 0.00 | 0.43 | 0.00 | 83 | 1017.9 |
| 20260504044029 | 5 | 183 | 1.6 | 3.2 | 0.00 | 0.43 | 0.00 | 83 | 1017.9 |
| 20260504043015 | 5 | 180 | 3.2 | 3.2 | 0.00 | 0.43 | 0.00 | 81 | 1017.8 |
| 20260504042020 | 6 | 182 | 3.2 | 3.2 | 0.00 | 0.43 | 0.00 | 79 | 1017.9 |
| 20260504041025 | 5 | 191 | 1.6 | 3.2 | 0.00 | 0.43 | 0.00 | 83 | 1017.8 |
| 20260504040030 | 5 | 199 | 1.6 | 3.2 | 0.00 | 0.43 | 0.00 | 84 | 1017.8 |
| 20260504035017 | 5 | 172 | 1.6 | 3.2 | 0.00 | 0.43 | 0.43 | 83 | 1017.8 |
| 20260504034022 | 5 | 179 | 1.6 | 3.2 | 0.00 | 0.43 | 0.43 | 83 | 1017.8 |
| 20260504033026 | 5 | 0.0 | 0.0 | 0.00 | 0.43 | 0.43 | 85 | 1017.8 | |
| 20260504032031 | 5 | 0.0 | 0.0 | 0.00 | 0.43 | 0.43 | 86 | 1017.8 | |
| 20260504031038 | 5 | 0.0 | 0.0 | 0.00 | 0.43 | 0.43 | 87 | 1017.8 | |
| 20260504030023 | 5 | 0.0 | 0.0 | 0.00 | 0.43 | 0.43 | 86 | 1017.6 | |
| 20260504025047 | 5 | 0.0 | 0.0 | 0.00 | 0.43 | 0.43 | 85 | 1017.7 | |
| 20260504024032 | 5 | 0.0 | 0.0 | 0.00 | 0.43 | 0.43 | 86 | 1017.8 | |
| 20260504023019 | 5 | 0.0 | 0.0 | 0.00 | 0.43 | 0.43 | 82 | 1017.8 | |
| 20260504022024 | 6 | 168 | 3.2 | 3.2 | 0.00 | 0.43 | 0.43 | 82 | 1017.6 |
| 20260504021049 | 6 | 172 | 1.6 | 3.2 | 0.00 | 0.43 | 0.43 | 83 | 1017.6 |
| 20260504020015 | 6 | 0.0 | 0.0 | 0.00 | 0.43 | 0.43 | 80 | 1017.6 | |
| 20260504015021 | 6 | 170 | 1.6 | 3.2 | 0.00 | 0.43 | 0.43 | 80 | 1017.4 |
| 20260504014047 | 6 | 0.0 | 0.0 | 0.00 | 0.43 | 0.43 | 77 | 1017.3 | |
| 20260504013029 | 7 | 0.0 | 0.0 | 0.00 | 0.43 | 0.43 | 74 | 1017.4 |